Liberia, Costa Rica

3:47 AM CST on September 28, 2016 (GMT -0600)
Daniel Oduber Quiros International

Weather History for MRLB - November, 2014

Change the Weather History Date:

Friday, November 28, 2014

  Actual Average Record
Temperature  
Mean Temperature 82 °F -  
Max Temperature 90 °F 86 °F 93 °F (2002)
Min Temperature 73 °F 73 °F 66 °F (2008)
Cooling Degree Days 16    
Growing Degree Days 32 (Base 50)    
Moisture  
Dew Point 67 °F    
Average Humidity 54    
Maximum Humidity 65    
Minimum Humidity 42    
Precipitation  
Precipitation 0.00 in - - ()
Sea Level Pressure  
Sea Level Pressure 29.79 in    
Wind  
Wind Speed 11 mph ()    
Max Wind Speed 26 mph    
Max Gust Speed 39 mph    
Visibility 7.4 miles    
Events      
Averages and records for this station are not official NWS values.
T = Trace of Precipitation, MM = Missing Value Source: Averaged Metar Reports

Daily Weather History Graph

Daily Weather History Graph

Search for Another Location

Airport or City:

Trip Planner

Search our weather history database for the weather conditions in past years. The results will help you decide how hot, cold, wet, or windy it might be!

Date:

Astronomy

Nov. 28, 2014 Rise Set
Actual Time 5:43 AM CST 5:17 PM CST
Civil Twilight 5:20 AM CST 5:39 PM CST
Nautical Twilight 4:54 AM CST 6:05 PM CST
Astronomical Twilight 4:28 AM CST 6:31 PM CST
Moon 11:11 AM CST 11:24 PM CST
Length of Visible Light 12h 18m
Length of Day
11h 33m
Waxing Crescent, 42% of the Moon is Illuminated
Nov 28
Waxing Crescent
Nov 29
First Quarter
Dec 6
Full
Dec 14
Last Quarter
Dec 21
New

Hourly Weather History & Observations

Time (CST) Temp. Heat Index Dew Point Humidity Pressure Visibility Wind Dir Wind Speed Gust Speed Precip Events Conditions
6:00 AM 80 °F - 66 °F 53% 29.86 in 12 mi NW 2.3 mph - -   Scattered Clouds
6:00 AM 78.8 °F - 66.2 °F 65% 29.83 in 6.2 mi NW 2.3 mph - N/A   Partly Cloudy
7:00 AM 80.6 °F 82.3 °F 64.4 °F 58% 29.83 in 6.2 mi NNW 10.4 mph - N/A   Partly Cloudy
8:00 AM 82.4 °F 84.6 °F 66.2 °F 58% 29.85 in 6.2 mi East 5.8 mph - N/A   Partly Cloudy
9:00 AM 85 °F - 67 °F 46% 29.88 in 12 mi NW 8.1 mph - -   Scattered Clouds
9:00 AM 86.0 °F 89.4 °F 68.0 °F 55% 29.84 in 6.2 mi NW 8.1 mph - N/A   Partly Cloudy
10:00 AM 86.0 °F 89.4 °F 68.0 °F 55% 29.83 in 6.2 mi West 5.8 mph - N/A   Partly Cloudy
11:00 AM 87.8 °F 91.4 °F 68.0 °F 52% 29.80 in 6.2 mi East 16.1 mph 29.9 mph N/A   Partly Cloudy
12:00 PM 87 °F - 67 °F 42% 29.79 in 12 mi East 19.6 mph - -   Scattered Clouds
12:00 PM 86.0 °F 89.4 °F 68.0 °F 55% 29.78 in 6.2 mi East 19.6 mph 31.1 mph N/A   Partly Cloudy
1:00 PM 87.8 °F 91.4 °F 68.0 °F 52% 29.74 in 6.2 mi East 17.3 mph - N/A   Scattered Clouds
2:00 PM 86.0 °F 88.2 °F 66.2 °F 51% 29.70 in 6.2 mi East 23.0 mph 35.7 mph N/A   Partly Cloudy
3:00 PM 87.8 °F 91.4 °F 68.0 °F 52% 29.71 in 6.2 mi East 18.4 mph 29.9 mph N/A   Scattered Clouds
4:00 PM 86.0 °F 88.2 °F 66.2 °F 51% 29.71 in 6.2 mi East 21.9 mph 35.7 mph N/A   Partly Cloudy
5:00 PM 84.2 °F 86.6 °F 66.2 °F 55% 29.73 in 6.2 mi East 26.5 mph 38.0 mph N/A   Scattered Clouds
6:00 PM 82 °F - 67 °F 51% 29.78 in 12 mi East 25.3 mph - -   Scattered Clouds
6:00 PM 82.4 °F 84.6 °F 66.2 °F 58% 29.75 in 6.2 mi East 25.3 mph 39.1 mph N/A   Partly Cloudy
7:00 PM 80.6 °F 83.2 °F 68.0 °F 65% 29.79 in 6.2 mi East 23.0 mph - N/A   Partly Cloudy
8:00 PM 80.6 °F 82.7 °F 66.2 °F 61% 29.82 in 6.2 mi East 18.4 mph - N/A   Partly Cloudy